Overview Statistics Trail Chart Weather Telemetry Raw packets
 

This is the latest recevied weather packets stored in our database for station/object W8RSN-13. If no packets are shown the sender has not sent any weather packets the latest 10 day(s).

<< 83 84 85 86 87 88 89 >>
Time Temp. Humidity Pressure Rain* Wind** Luminosity Snow
1788077066 23.89° C 69% 1013.5 hPa - - - -
1788076765 23.89° C 69% 1013.7 hPa - - - -
1788076464 24.44° C 68% 1013.8 hPa - - - -
1788076163 24.44° C 68% 1013.6 hPa - - - -
1788075862 24.44° C 66% 1013.6 hPa - - - -
1788075561 25° C 62% 1013.6 hPa - - - -
1788075260 25° C 58% 1013.6 hPa - - - -
1788074959 25° C 54% 1013.6 hPa - - - -
1788074658 25° C 54% 1013.6 hPa - - - -
1788074358 25° C 54% 1013.4 hPa - - - -
1788074057 25° C 54% 1013.5 hPa - - - -
1788073756 25° C 54% 1013.6 hPa - - - -
1788073475 25° C 55% 1013.6 hPa - - - -
1788073174 25° C 55% 1013.5 hPa - - - -
1788072873 25° C 55% 1013.6 hPa - - - -
1788072572 25° C 55% 1013.6 hPa - - - -
1788072272 25° C 54% 1013.6 hPa - - - -
1788071970 25.56° C 55% 1013.6 hPa - - - -
1788071670 25.56° C 52% 1013.4 hPa - - - -
1788071369 25.56° C 53% 1013.6 hPa - - - -
1788071068 25.56° C 53% 1013.6 hPa - - - -
1788070767 25.56° C 53% 1013.6 hPa - - - -
1788070466 25.56° C 54% 1013.6 hPa - - - -
1788070165 26.11° C 54% 1013.3 hPa - - - -
1788069864 26.11° C 52% 1013.4 hPa - - - -

* Rain since midnight (hover to see other rain measurements)
** Current wind speed in m/s (hover to see current wind gust speed)